| time (UTC) | temp C | wind direction | speed KPH | gust KPH | rain 1hr cm | rain 24hr cm | rain mn cm | humidity % | barometer mb |
| 20260906191236 | 13 | 98 | 9.7 | 6.4 | 0.00 | 0.00 | 0.00 | 74 | 1018.8 |
| 20260906190737 | 13 | 148 | 9.7 | 8.0 | 0.00 | 0.00 | 0.00 | 74 | 1018.9 |
| 20260906190237 | 13 | 110 | 9.7 | 14.5 | 0.00 | 0.00 | 0.00 | 74 | 1019.0 |
| 20260906185738 | 13 | 149 | 9.7 | 4.8 | 0.00 | 0.00 | 0.00 | 74 | 1019.1 |
| 20260906185238 | 13 | 195 | 8.0 | 8.0 | 0.00 | 0.00 | 0.00 | 75 | 1019.2 |
| 20260906184739 | 13 | 84 | 9.7 | 6.4 | 0.00 | 0.00 | 0.00 | 76 | 1019.3 |
| 20260906184236 | 13 | 208 | 6.4 | 11.3 | 0.00 | 0.00 | 0.00 | 77 | 1019.4 |
| 20260906183737 | 13 | 194 | 9.7 | 9.7 | 0.00 | 0.00 | 0.00 | 76 | 1019.6 |
| 20260906183237 | 13 | 211 | 9.7 | 6.4 | 0.00 | 0.00 | 0.00 | 77 | 1019.7 |
| 20260906182738 | 13 | 184 | 8.0 | 8.0 | 0.00 | 0.00 | 0.00 | 78 | 1019.7 |
| 20260906182238 | 12 | 191 | 11.3 | 9.7 | 0.00 | 0.00 | 0.00 | 79 | 1019.8 |
| 20260906181739 | 12 | 58 | 8.0 | 3.2 | 0.00 | 0.00 | 0.00 | 79 | 1019.8 |
| 20260906181237 | 12 | 205 | 9.7 | 6.4 | 0.00 | 0.00 | 0.00 | 80 | 1019.9 |
| 20260906180737 | 12 | 148 | 6.4 | 6.4 | 0.00 | 0.00 | 0.00 | 81 | 1020.0 |
| 20260906180238 | 12 | 122 | 8.0 | 8.0 | 0.00 | 0.00 | 0.00 | 81 | 1020.1 |
| 20260906175738 | 12 | 131 | 11.3 | 9.7 | 0.00 | 0.00 | 0.00 | 81 | 1020.3 |
| 20260906175239 | 12 | 125 | 8.0 | 6.4 | 0.00 | 0.00 | 0.00 | 82 | 1020.4 |
| 20260906174739 | 12 | 158 | 6.4 | 4.8 | 0.00 | 0.00 | 0.00 | 83 | 1020.4 |
| 20260906174237 | 12 | 179 | 8.0 | 9.7 | 0.00 | 0.00 | 0.00 | 84 | 1020.5 |
| 20260906173738 | 11 | 231 | 6.4 | 9.7 | 0.00 | 0.00 | 0.00 | 85 | 1020.6 |
| 20260906173238 | 11 | 152 | 6.4 | 6.4 | 0.00 | 0.00 | 0.00 | 86 | 1020.7 |
| 20260906172739 | 11 | 165 | 8.0 | 6.4 | 0.00 | 0.00 | 0.00 | 86 | 1020.8 |
| 20260906172239 | 11 | 184 | 6.4 | 3.2 | 0.00 | 0.00 | 0.00 | 88 | 1020.9 |
| 20260906171740 | 11 | 98 | 6.4 | 8.0 | 0.00 | 0.00 | 0.00 | 87 | 1021.0 |
| 20260906171238 | 11 | 97 | 6.4 | 8.0 | 0.00 | 0.00 | 0.00 | 88 | 1021.1 |
| 20260906170738 | 11 | 198 | 6.4 | 9.7 | 0.00 | 0.00 | 0.00 | 89 | 1021.2 |
| 20260906170239 | 11 | 176 | 8.0 | 8.0 | 0.00 | 0.00 | 0.00 | 90 | 1021.2 |
| 20260906165739 | 11 | 169 | 9.7 | 14.5 | 0.00 | 0.00 | 0.00 | 89 | 1021.3 |
| 20260906165240 | 11 | 183 | 9.7 | 8.0 | 0.00 | 0.00 | 0.00 | 90 | 1021.3 |
| 20260906164740 | 11 | 15 | 4.8 | 6.4 | 0.00 | 0.00 | 0.00 | 90 | 1021.3 |
| 20260906164238 | 11 | 174 | 4.8 | 8.0 | 0.00 | 0.00 | 0.00 | 92 | 1021.4 |
| 20260906163739 | 11 | 118 | 4.8 | 11.3 | 0.00 | 0.00 | 0.00 | 92 | 1021.5 |
| 20260906163239 | 10 | 207 | 8.0 | 8.0 | 0.00 | 0.00 | 0.00 | 91 | 1021.5 |
| 20260906162740 | 10 | 208 | 6.4 | 6.4 | 0.00 | 0.00 | 0.00 | 93 | 1021.6 |
| 20260906162241 | 10 | 172 | 6.4 | 8.0 | 0.00 | 0.00 | 0.00 | 94 | 1021.6 |
| 20260906161741 | 10 | 143 | 6.4 | 9.7 | 0.00 | 0.00 | 0.00 | 94 | 1021.6 |
| 20260906161239 | 10 | 90 | 8.0 | 1.6 | 0.00 | 0.00 | 0.00 | 95 | 1021.7 |
| 20260906160740 | 10 | 143 | 9.7 | 9.7 | 0.00 | 0.00 | 0.00 | 95 | 1021.7 |
| 20260906160240 | 10 | 186 | 6.4 | 11.3 | 0.00 | 0.00 | 0.00 | 95 | 1021.8 |
| 20260906155741 | 10 | 165 | 9.7 | 4.8 | 0.00 | 0.00 | 0.00 | 95 | 1021.8 |
| 20260906155241 | 10 | 152 | 6.4 | 4.8 | 0.00 | 0.00 | 0.00 | 96 | 1021.8 |
| 20260906154742 | 10 | 180 | 6.4 | 9.7 | 0.00 | 0.00 | 0.00 | 96 | 1021.8 |
| 20260906154240 | 10 | 165 | 4.8 | 9.7 | 0.00 | 0.00 | 0.00 | 96 | 1021.9 |
| 20260906153740 | 9 | 115 | 9.7 | 12.9 | 0.00 | 0.00 | 0.00 | 96 | 1022.0 |
| 20260906153241 | 9 | 128 | 8.0 | 4.8 | 0.00 | 0.00 | 0.00 | 96 | 1022.0 |
| 20260906152742 | 9 | 91 | 6.4 | 3.2 | 0.00 | 0.00 | 0.00 | 96 | 1022.0 |
| 20260906152242 | 9 | 138 | 8.0 | 6.4 | 0.00 | 0.00 | 0.00 | 96 | 1022.0 |
| 20260906151743 | 9 | 117 | 8.0 | 6.4 | 0.00 | 0.00 | 0.00 | 96 | 1022.1 |
| 20260906151241 | 9 | 111 | 6.4 | 3.2 | 0.00 | 0.00 | 0.00 | 97 | 1022.1 |
| 20260906150741 | 9 | 96 | 4.8 | 8.0 | 0.00 | 0.00 | 0.00 | 97 | 1022.2 |
| 20260906150242 | 8 | 113 | 8.0 | 6.4 | 0.00 | 0.00 | 0.00 | 97 | 1022.2 |
| 20260906145742 | 8 | 155 | 8.0 | 11.3 | 0.00 | 0.00 | 0.00 | 97 | 1022.2 |
| 20260906145243 | 8 | 122 | 6.4 | 4.8 | 0.00 | 0.00 | 0.00 | 97 | 1022.2 |
| 20260906144743 | 8 | 142 | 8.0 | 6.4 | 0.00 | 0.00 | 0.00 | 97 | 1022.2 |
| 20260906144241 | 8 | 122 | 6.4 | 4.8 | 0.00 | 0.00 | 0.00 | 97 | 1022.3 |
| 20260906143742 | 8 | 105 | 4.8 | 8.0 | 0.00 | 0.00 | 0.00 | 97 | 1022.3 |
| 20260906143242 | 8 | 162 | 8.0 | 4.8 | 0.00 | 0.00 | 0.00 | 97 | 1022.3 |
| 20260906142743 | 8 | 210 | 6.4 | 4.8 | 0.00 | 0.00 | 0.00 | 97 | 1022.3 |
| 20260906142244 | 8 | 94 | 8.0 | 4.8 | 0.00 | 0.00 | 0.00 | 97 | 1022.4 |
| 20260906141744 | 8 | 75 | 6.4 | 11.3 | 0.00 | 0.00 | 0.00 | 98 | 1022.4 |
| 20260906141242 | 8 | 114 | 4.8 | 8.0 | 0.00 | 0.00 | 0.00 | 98 | 1022.4 |
| 20260906140743 | 8 | 149 | 6.4 | 4.8 | 0.00 | 0.00 | 0.00 | 98 | 1022.4 |
| 20260906140243 | 8 | 127 | 6.4 | 6.4 | 0.00 | 0.00 | 0.00 | 98 | 1022.5 |
| 20260906135744 | 8 | 117 | 8.0 | 4.8 | 0.00 | 0.00 | 0.00 | 98 | 1022.5 |
| 20260906135244 | 8 | 94 | 4.8 | 6.4 | 0.00 | 0.00 | 0.00 | 98 | 1022.5 |
| 20260906134745 | 8 | 190 | 6.4 | 4.8 | 0.00 | 0.00 | 0.00 | 98 | 1022.5 |
| 20260906134243 | 8 | 146 | 9.7 | 6.4 | 0.00 | 0.00 | 0.00 | 98 | 1022.6 |
| 20260906133743 | 8 | 76 | 6.4 | 8.0 | 0.00 | 0.00 | 0.00 | 98 | 1022.6 |
| 20260906133244 | 8 | 177 | 11.3 | 8.0 | 0.00 | 0.00 | 0.00 | 98 | 1022.6 |
| 20260906132744 | 8 | 72 | 6.4 | 8.0 | 0.00 | 0.00 | 0.00 | 98 | 1022.5 |
| 20260906132245 | 8 | 68 | 4.8 | 6.4 | 0.00 | 0.00 | 0.00 | 98 | 1022.5 |
| 20260906131745 | 8 | 100 | 4.8 | 8.0 | 0.00 | 0.00 | 0.00 | 98 | 1022.6 |
| 20260906131243 | 8 | 110 | 4.8 | 3.2 | 0.00 | 0.00 | 0.00 | 99 | 1022.5 |
| 20260906130744 | 8 | 103 | 8.0 | 6.4 | 0.00 | 0.00 | 0.00 | 99 | 1022.4 |
| 20260906130244 | 8 | 107 | 11.3 | 12.9 | 0.00 | 0.00 | 0.00 | 99 | 1022.5 |
| 20260906125745 | 8 | 127 | 6.4 | 6.4 | 0.00 | 0.00 | 0.00 | 99 | 1022.5 |
| 20260906125245 | 8 | 111 | 9.7 | 8.0 | 0.00 | 0.00 | 0.00 | 99 | 1022.6 |
| 20260906124746 | 8 | 107 | 8.0 | 6.4 | 0.00 | 0.00 | 0.00 | 99 | 1022.6 |
| 20260906124244 | 8 | 75 | 9.7 | 8.0 | 0.00 | 0.00 | 0.00 | 99 | 1022.7 |
| 20260906123744 | 8 | 128 | 4.8 | 4.8 | 0.00 | 0.00 | 0.00 | 99 | 1022.7 |
| 20260906123245 | 8 | 141 | 6.4 | 9.7 | 0.00 | 0.00 | 0.00 | 99 | 1022.7 |
| 20260906122745 | 8 | 100 | 6.4 | 4.8 | 0.00 | 0.00 | 0.00 | 99 | 1022.7 |
| 20260906122246 | 8 | 125 | 9.7 | 6.4 | 0.00 | 0.00 | 0.00 | 99 | 1022.7 |
| 20260906121746 | 8 | 135 | 4.8 | 6.4 | 0.00 | 0.00 | 0.00 | 99 | 1022.8 |
| 20260906121244 | 8 | 91 | 4.8 | 4.8 | 0.00 | 0.00 | 0.00 | 99 | 1022.8 |
| 20260906120744 | 8 | 146 | 8.0 | 4.8 | 0.00 | 0.00 | 0.00 | 99 | 1022.8 |
| 20260906120245 | 8 | 101 | 4.8 | 6.4 | 0.00 | 0.00 | 0.00 | 100 | 1022.8 |
| 20260906115745 | 8 | 96 | 6.4 | 3.2 | 0.00 | 0.00 | 0.00 | 100 | 1022.8 |
| 20260906115246 | 8 | 94 | 4.8 | 1.6 | 0.00 | 0.00 | 0.00 | 100 | 1022.8 |
| 20260906114746 | 8 | 122 | 4.8 | 8.0 | 0.00 | 0.00 | 0.00 | 100 | 1022.8 |
| 20260906114244 | 8 | 141 | 4.8 | 8.0 | 0.00 | 0.00 | 0.00 | 100 | 1022.8 |
| 20260906113745 | 8 | 139 | 6.4 | 4.8 | 0.00 | 0.00 | 0.00 | 100 | 1022.8 |
| 20260906113245 | 8 | 160 | 1.6 | 3.2 | 0.00 | 0.00 | 0.00 | 100 | 1022.8 |
| 20260906112746 | 8 | 136 | 3.2 | 4.8 | 0.00 | 0.00 | 0.00 | 100 | 1022.9 |
| 20260906112247 | 8 | 149 | 4.8 | 4.8 | 0.00 | 0.00 | 0.00 | 100 | 1022.8 |
| 20260906111747 | 7 | 172 | 4.8 | 3.2 | 0.00 | 0.00 | 0.00 | 100 | 1023.0 |
| 20260906111245 | 7 | 101 | 6.4 | 8.0 | 0.00 | 0.00 | 0.00 | 99 | 1023.0 |
| 20260906110745 | 7 | 98 | 4.8 | 4.8 | 0.00 | 0.00 | 0.00 | 100 | 1023.0 |
| 20260906110246 | 7 | 83 | 6.4 | 6.4 | 0.00 | 0.00 | 0.00 | 100 | 1022.9 |
| 20260906105746 | 7 | 107 | 4.8 | 1.6 | 0.00 | 0.00 | 0.00 | 100 | 1023.0 |
| 20260906105247 | 7 | 134 | 6.4 | 8.0 | 0.00 | 0.00 | 0.00 | 100 | 1023.0 |
| 20260906104747 | 7 | 165 | 4.8 | 6.4 | 0.00 | 0.00 | 0.00 | 100 | 1023.0 |
| 20260906104245 | 7 | 152 | 4.8 | 6.4 | 0.00 | 0.00 | 0.00 | 100 | 1023.1 |
| 20260906103746 | 7 | 108 | 6.4 | 4.8 | 0.00 | 0.00 | 0.00 | 100 | 1023.0 |
| 20260906103246 | 7 | 94 | 6.4 | 8.0 | 0.00 | 0.00 | 0.00 | 100 | 1023.1 |
| 20260906102747 | 7 | 96 | 6.4 | 4.8 | 0.00 | 0.00 | 0.00 | 100 | 1023.2 |
| 20260906102247 | 7 | 83 | 6.4 | 1.6 | 0.00 | 0.00 | 0.00 | 100 | 1023.2 |
| 20260906101748 | 7 | 115 | 3.2 | 11.3 | 0.00 | 0.00 | 0.00 | 100 | 1023.3 |
| 20260906101246 | 7 | 127 | 6.4 | 6.4 | 0.00 | 0.00 | 0.00 | 100 | 1023.3 |
| 20260906100746 | 7 | 118 | 4.8 | 6.4 | 0.00 | 0.00 | 0.00 | 100 | 1023.3 |
| 20260906100247 | 7 | 90 | 3.2 | 8.0 | 0.00 | 0.00 | 0.00 | 99 | 1023.4 |
| 20260906095747 | 7 | 132 | 8.0 | 9.7 | 0.00 | 0.00 | 0.00 | 99 | 1023.4 |
| 20260906095248 | 7 | 100 | 6.4 | 8.0 | 0.00 | 0.00 | 0.00 | 99 | 1023.4 |
| 20260906094748 | 7 | 69 | 4.8 | 4.8 | 0.00 | 0.00 | 0.00 | 99 | 1023.4 |
| 20260906094246 | 7 | 121 | 6.4 | 6.4 | 0.00 | 0.00 | 0.00 | 99 | 1023.4 |
| 20260906093746 | 7 | 141 | 6.4 | 6.4 | 0.00 | 0.00 | 0.00 | 99 | 1023.5 |
| 20260906093247 | 7 | 159 | 6.4 | 3.2 | 0.00 | 0.00 | 0.00 | 99 | 1023.5 |
| 20260906092747 | 7 | 79 | 4.8 | 9.7 | 0.00 | 0.00 | 0.00 | 99 | 1023.4 |
| 20260906092248 | 7 | 65 | 1.6 | 3.2 | 0.00 | 0.00 | 0.00 | 99 | 1023.5 |
| 20260906091749 | 7 | 113 | 8.0 | 4.8 | 0.00 | 0.00 | 0.00 | 99 | 1023.5 |
| 20260906091246 | 7 | 110 | 8.0 | 4.8 | 0.00 | 0.00 | 0.00 | 99 | 1023.4 |
| 20260906090746 | 7 | 128 | 6.4 | 6.4 | 0.00 | 0.00 | 0.00 | 99 | 1023.3 |
| 20260906090247 | 7 | 113 | 4.8 | 6.4 | 0.00 | 0.00 | 0.00 | 99 | 1023.3 |
| 20260906085747 | 7 | 121 | 8.0 | 8.0 | 0.00 | 0.00 | 0.00 | 99 | 1023.3 |
| 20260906085248 | 7 | 103 | 9.7 | 4.8 | 0.00 | 0.00 | 0.00 | 99 | 1023.3 |
| 20260906084748 | 7 | 75 | 8.0 | 6.4 | 0.00 | 0.00 | 0.00 | 99 | 1023.4 |
| 20260906084246 | 7 | 150 | 8.0 | 8.0 | 0.00 | 0.00 | 0.00 | 99 | 1023.4 |
| 20260906083747 | 7 | 59 | 8.0 | 4.8 | 0.00 | 0.00 | 0.00 | 99 | 1023.3 |
| 20260906083247 | 7 | 131 | 6.4 | 3.2 | 0.00 | 0.00 | 0.00 | 99 | 1023.3 |
| 20260906082748 | 7 | 134 | 8.0 | 6.4 | 0.00 | 0.00 | 0.00 | 99 | 1023.3 |
| 20260906082249 | 7 | 107 | 4.8 | 3.2 | 0.00 | 0.00 | 0.00 | 100 | 1023.4 |
| 20260906081749 | 7 | 139 | 8.0 | 6.4 | 0.00 | 0.00 | 0.00 | 100 | 1023.4 |
| 20260906081247 | 7 | 131 | 8.0 | 8.0 | 0.00 | 0.00 | 0.00 | 100 | 1023.4 |
| 20260906080747 | 7 | 117 | 6.4 | 4.8 | 0.00 | 0.00 | 0.00 | 100 | 1023.4 |
| 20260906080248 | 7 | 114 | 8.0 | 8.0 | 0.00 | 0.00 | 0.00 | 100 | 1023.3 |
| 20260906075748 | 7 | 122 | 8.0 | 8.0 | 0.00 | 0.00 | 0.00 | 100 | 1023.3 |
| 20260906075249 | 7 | 70 | 6.4 | 4.8 | 0.00 | 0.00 | 0.00 | 100 | 1023.3 |
| 20260906074749 | 7 | 111 | 4.8 | 6.4 | 0.00 | 0.00 | 0.00 | 100 | 1023.4 |
| 20260906074247 | 7 | 135 | 4.8 | 6.4 | 0.00 | 0.00 | 0.00 | 100 | 1023.5 |
| 20260906073748 | 7 | 96 | 8.0 | 3.2 | 0.00 | 0.00 | 0.00 | 100 | 1023.4 |
| 20260906073248 | 7 | 110 | 8.0 | 4.8 | 0.00 | 0.00 | 0.00 | 100 | 1023.5 |
| 20260906072749 | 7 | 150 | 4.8 | 11.3 | 0.00 | 0.00 | 0.00 | 100 | 1023.5 |
| 20260906072250 | 7 | 79 | 4.8 | 6.4 | 0.00 | 0.00 | 0.00 | 100 | 1023.5 |
| 20260906071750 | 7 | 70 | 4.8 | 1.6 | 0.00 | 0.00 | 0.00 | 100 | 1023.5 |
| 20260906071248 | 7 | 148 | 4.8 | 6.4 | 0.00 | 0.00 | 0.00 | 100 | 1023.5 |
| 20260906070748 | 7 | 163 | 8.0 | 4.8 | 0.00 | 0.00 | 0.00 | 100 | 1023.5 |
| 20260906070249 | 7 | 73 | 8.0 | 8.0 | 0.00 | 0.00 | 0.00 | 100 | 1023.4 |
| 20260906065749 | 7 | 135 | 3.2 | 6.4 | 0.00 | 0.00 | 0.00 | 100 | 1023.4 |
| 20260906065250 | 7 | 136 | 8.0 | 3.2 | 0.00 | 0.00 | 0.00 | 100 | 1023.5 |
| 20260906064750 | 7 | 183 | 8.0 | 4.8 | 0.00 | 0.00 | 0.00 | 100 | 1023.5 |
| 20260906064248 | 7 | 77 | 6.4 | 4.8 | 0.00 | 0.00 | 0.00 | 100 | 1023.4 |
| 20260906063749 | 7 | 89 | 4.8 | 3.2 | 0.00 | 0.00 | 0.00 | 100 | 1023.4 |
| 20260906063249 | 7 | 97 | 3.2 | 8.0 | 0.00 | 0.00 | 0.00 | 100 | 1023.3 |
| 20260906062750 | 7 | 69 | 4.8 | 8.0 | 0.00 | 0.00 | 0.00 | 100 | 1023.3 |
| 20260906062250 | 7 | 128 | 4.8 | 6.4 | 0.00 | 0.00 | 0.00 | 100 | 1023.2 |
| 20260906061751 | 7 | 141 | 4.8 | 6.4 | 0.00 | 0.00 | 0.00 | 100 | 1023.2 |
| 20260906061249 | 7 | 84 | 4.8 | 4.8 | 0.00 | 0.00 | 0.00 | 100 | 1023.1 |
| 20260906060749 | 7 | 141 | 4.8 | 8.0 | 0.00 | 0.00 | 0.00 | 100 | 1023.1 |
| 20260906060249 | 7 | 127 | 6.4 | 12.9 | 0.00 | 0.00 | 0.00 | 100 | 1023.1 |
| 20260906055750 | 7 | 49 | 8.0 | 14.5 | 0.00 | 0.00 | 0.00 | 100 | 1023.1 |
| 20260906055251 | 7 | 86 | 6.4 | 6.4 | 0.00 | 0.00 | 0.00 | 100 | 1023.1 |
| 20260906054751 | 7 | 132 | 6.4 | 8.0 | 0.00 | 0.00 | 0.00 | 100 | 1023.1 |
| 20260906054249 | 7 | 167 | 9.7 | 8.0 | 0.00 | 0.00 | 0.00 | 100 | 1023.1 |
| 20260906053749 | 7 | 89 | 4.8 | 11.3 | 0.00 | 0.00 | 0.00 | 100 | 1023.0 |
| 20260906053250 | 8 | 98 | 4.8 | 8.0 | 0.00 | 0.00 | 0.00 | 100 | 1023.0 |
| 20260906052750 | 8 | 145 | 4.8 | 6.4 | 0.00 | 0.00 | 0.00 | 100 | 1022.9 |
| 20260906052251 | 7 | 77 | 8.0 | 6.4 | 0.00 | 0.00 | 0.00 | 99 | 1022.9 |
| 20260906051751 | 7 | 143 | 8.0 | 12.9 | 0.00 | 0.00 | 0.00 | 99 | 1022.9 |
| 20260906051249 | 8 | 68 | 6.4 | 9.7 | 0.00 | 0.00 | 0.00 | 99 | 1022.9 |
| 20260906050750 | 8 | 127 | 4.8 | 8.0 | 0.00 | 0.00 | 0.00 | 99 | 1022.9 |
| 20260906050250 | 8 | 98 | 8.0 | 1.6 | 0.00 | 0.00 | 0.00 | 99 | 1022.8 |
| 20260906045751 | 8 | 125 | 6.4 | 6.4 | 0.00 | 0.00 | 0.00 | 99 | 1022.8 |
| 20260906045251 | 8 | 105 | 4.8 | 4.8 | 0.00 | 0.00 | 0.00 | 99 | 1022.8 |
| 20260906044752 | 8 | 97 | 6.4 | 8.0 | 0.00 | 0.00 | 0.00 | 99 | 1022.8 |
| 20260906044250 | 8 | 136 | 6.4 | 6.4 | 0.00 | 0.00 | 0.00 | 99 | 1022.8 |
| 20260906043750 | 8 | 91 | 6.4 | 6.4 | 0.00 | 0.00 | 0.00 | 99 | 1022.8 |
| 20260906043251 | 8 | 115 | 4.8 | 8.0 | 0.00 | 0.00 | 0.00 | 99 | 1022.8 |
| 20260906042751 | 8 | 83 | 4.8 | 6.4 | 0.00 | 0.00 | 0.00 | 99 | 1022.7 |
| 20260906042252 | 8 | 118 | 9.7 | 4.8 | 0.00 | 0.00 | 0.00 | 99 | 1022.6 |
| 20260906041752 | 8 | 146 | 8.0 | 3.2 | 0.00 | 0.00 | 0.00 | 100 | 1022.5 |
| 20260906041250 | 8 | 111 | 4.8 | 9.7 | 0.00 | 0.00 | 0.00 | 99 | 1022.5 |
| 20260906040751 | 8 | 97 | 4.8 | 4.8 | 0.00 | 0.00 | 0.00 | 100 | 1022.6 |
| 20260906040251 | 8 | 66 | 4.8 | 6.4 | 0.00 | 0.00 | 0.00 | 100 | 1022.5 |
| 20260906035752 | 8 | 113 | 4.8 | 4.8 | 0.00 | 0.00 | 0.00 | 100 | 1022.6 |
| 20260906035252 | 8 | 90 | 8.0 | 8.0 | 0.00 | 0.00 | 0.00 | 99 | 1022.6 |
| 20260906034753 | 8 | 125 | 6.4 | 6.4 | 0.00 | 0.00 | 0.00 | 100 | 1022.6 |
| 20260906034251 | 8 | 91 | 4.8 | 8.0 | 0.00 | 0.00 | 0.00 | 100 | 1022.5 |
| 20260906033752 | 8 | 70 | 4.8 | 6.4 | 0.00 | 0.00 | 0.00 | 100 | 1022.5 |
| 20260906033252 | 8 | 90 | 4.8 | 8.0 | 0.00 | 0.00 | 0.00 | 99 | 1022.4 |
| 20260906032753 | 8 | 93 | 6.4 | 6.4 | 0.00 | 0.00 | 0.00 | 99 | 1022.5 |
| 20260906032253 | 8 | 73 | 3.2 | 3.2 | 0.00 | 0.00 | 0.00 | 99 | 1022.5 |
| 20260906031754 | 8 | 68 | 6.4 | 4.8 | 0.00 | 0.00 | 0.00 | 99 | 1022.5 |
| 20260906031252 | 8 | 107 | 6.4 | 4.8 | 0.00 | 0.00 | 0.00 | 99 | 1022.5 |
| 20260906030752 | 8 | 75 | 6.4 | 4.8 | 0.00 | 0.00 | 0.00 | 99 | 1022.5 |
| 20260906030253 | 8 | 93 | 6.4 | 9.7 | 0.00 | 0.00 | 0.00 | 98 | 1022.4 |
| 20260906025753 | 8 | 97 | 4.8 | 1.6 | 0.00 | 0.00 | 0.00 | 98 | 1022.5 |
| 20260906025254 | 8 | 97 | 3.2 | 3.2 | 0.00 | 0.00 | 0.00 | 98 | 1022.5 |
| 20260906024754 | 8 | 69 | 8.0 | 3.2 | 0.00 | 0.00 | 0.00 | 98 | 1022.5 |
| 20260906024252 | 8 | 107 | 4.8 | 3.2 | 0.00 | 0.00 | 0.00 | 97 | 1022.4 |
| 20260906023753 | 8 | 68 | 8.0 | 6.4 | 0.00 | 0.00 | 0.00 | 97 | 1022.5 |
| 20260906023253 | 8 | 98 | 3.2 | 4.8 | 0.00 | 0.00 | 0.00 | 97 | 1022.4 |
| 20260906022754 | 8 | 114 | 6.4 | 8.0 | 0.00 | 0.00 | 0.00 | 97 | 1022.4 |
| 20260906022254 | 8 | 107 | 6.4 | 0.0 | 0.00 | 0.00 | 0.00 | 97 | 1022.3 |
| 20260906021755 | 8 | 73 | 6.4 | 12.9 | 0.00 | 0.00 | 0.00 | 97 | 1022.3 |
| 20260906021252 | 8 | 110 | 8.0 | 9.7 | 0.00 | 0.00 | 0.00 | 96 | 1022.3 |
| 20260906020753 | 8 | 103 | 8.0 | 8.0 | 0.00 | 0.00 | 0.00 | 96 | 1022.3 |
| 20260906020253 | 8 | 105 | 9.7 | 4.8 | 0.00 | 0.00 | 0.00 | 96 | 1022.2 |
| 20260906015754 | 8 | 55 | 8.0 | 9.7 | 0.00 | 0.00 | 0.00 | 96 | 1022.1 |
| 20260906015254 | 8 | 98 | 9.7 | 0.0 | 0.00 | 0.00 | 0.00 | 95 | 1022.1 |
| 20260906014755 | 8 | 37 | 11.3 | 6.4 | 0.00 | 0.00 | 0.00 | 95 | 1022.1 |
| 20260906014253 | 8 | 83 | 11.3 | 11.3 | 0.00 | 0.00 | 0.00 | 95 | 1022.0 |
| 20260906013753 | 8 | 66 | 6.4 | 11.3 | 0.00 | 0.00 | 0.00 | 95 | 1022.0 |
| 20260906013254 | 8 | 49 | 8.0 | 11.3 | 0.00 | 0.00 | 0.00 | 95 | 1022.0 |
| 20260906012754 | 8 | 89 | 8.0 | 4.8 | 0.00 | 0.00 | 0.00 | 94 | 1021.9 |
| 20260906012255 | 8 | 100 | 8.0 | 6.4 | 0.00 | 0.00 | 0.00 | 93 | 1021.9 |
| 20260906011755 | 8 | 105 | 6.4 | 8.0 | 0.00 | 0.00 | 0.00 | 94 | 1021.8 |
| 20260906011253 | 8 | 100 | 11.3 | 4.8 | 0.00 | 0.00 | 0.00 | 94 | 1021.7 |
| 20260906010754 | 9 | 90 | 6.4 | 8.0 | 0.00 | 0.00 | 0.00 | 93 | 1021.7 |
| 20260906010254 | 9 | 128 | 6.4 | 3.2 | 0.00 | 0.00 | 0.00 | 93 | 1021.6 |
| 20260906005755 | 9 | 77 | 9.7 | 4.8 | 0.00 | 0.00 | 0.00 | 92 | 1021.7 |
| 20260906005255 | 9 | 108 | 8.0 | 4.8 | 0.00 | 0.00 | 0.00 | 90 | 1021.6 |
| 20260906004756 | 9 | 80 | 8.0 | 0.0 | 0.00 | 0.00 | 0.00 | 89 | 1021.6 |
| 20260906004253 | 9 | 104 | 9.7 | 8.0 | 0.00 | 0.00 | 0.00 | 89 | 1021.5 |
| 20260906003754 | 10 | 80 | 8.0 | 9.7 | 0.00 | 0.00 | 0.00 | 88 | 1021.5 |
| 20260906003255 | 10 | 84 | 9.7 | 6.4 | 0.00 | 0.00 | 0.00 | 87 | 1021.5 |
| 20260906002755 | 10 | 94 | 6.4 | 8.0 | 0.00 | 0.00 | 0.00 | 87 | 1021.6 |
| 20260906002256 | 9 | 120 | 8.0 | 11.3 | 0.00 | 0.00 | 0.00 | 86 | 1021.6 |
| 20260906001756 | 10 | 62 | 8.0 | 4.8 | 0.00 | 0.00 | 0.00 | 85 | 1021.5 |
| 20260906001254 | 10 | 63 | 4.8 | 6.4 | 0.00 | 0.00 | 0.00 | 85 | 1021.4 |
| 20260906000755 | 10 | 37 | 11.3 | 6.4 | 0.00 | 0.00 | 0.00 | 84 | 1021.3 |
| 20260906000256 | 10 | 84 | 12.9 | 6.4 | 0.00 | 0.00 | 0.00 | 84 | 1021.3 |
| 20260905235756 | 10 | 124 | 8.0 | 11.3 | 0.00 | 0.00 | 0.00 | 84 | 1021.3 |
| 20260905235256 | 10 | 103 | 9.7 | 12.9 | 0.00 | 0.00 | 0.00 | 85 | 1021.3 |
| 20260905234757 | 10 | 77 | 6.4 | 9.7 | 0.00 | 0.00 | 0.00 | 85 | 1021.2 |
| 20260905234255 | 10 | 98 | 8.0 | 14.5 | 0.00 | 0.00 | 0.00 | 84 | 1021.3 |
| 20260905233755 | 10 | 21 | 6.4 | 6.4 | 0.00 | 0.00 | 0.00 | 84 | 1021.2 |
| 20260905233256 | 10 | 44 | 6.4 | 4.8 | 0.00 | 0.00 | 0.00 | 84 | 1021.1 |
| 20260905232756 | 10 | 59 | 11.3 | 14.5 | 0.00 | 0.00 | 0.00 | 84 | 1021.0 |
| 20260905232257 | 10 | 37 | 9.7 | 14.5 | 0.00 | 0.00 | 0.00 | 83 | 1020.9 |
| 20260905231758 | 10 | 84 | 8.0 | 4.8 | 0.00 | 0.00 | 0.00 | 82 | 1020.9 |
| 20260905231255 | 10 | 72 | 8.0 | 8.0 | 0.00 | 0.00 | 0.00 | 81 | 1020.8 |
| 20260905230756 | 10 | 163 | 8.0 | 6.4 | 0.00 | 0.00 | 0.00 | 81 | 1020.7 |
| 20260905230257 | 10 | 139 | 11.3 | 8.0 | 0.00 | 0.00 | 0.00 | 80 | 1020.8 |
| 20260905225757 | 10 | 105 | 8.0 | 8.0 | 0.00 | 0.00 | 0.00 | 81 | 1020.7 |
| 20260905225258 | 10 | 45 | 6.4 | 9.7 | 0.00 | 0.00 | 0.00 | 81 | 1020.7 |
| 20260905224758 | 10 | 70 | 6.4 | 4.8 | 0.00 | 0.00 | 0.00 | 81 | 1020.5 |
| 20260905224256 | 10 | 77 | 6.4 | 9.7 | 0.00 | 0.00 | 0.00 | 80 | 1020.5 |
| 20260905223757 | 10 | 58 | 8.0 | 12.9 | 0.00 | 0.00 | 0.00 | 80 | 1020.4 |
| 20260905223257 | 10 | 62 | 9.7 | 11.3 | 0.00 | 0.00 | 0.00 | 79 | 1020.4 |
| 20260905222758 | 11 | 111 | 8.0 | 6.4 | 0.00 | 0.00 | 0.00 | 79 | 1020.2 |
| 20260905222259 | 11 | 152 | 8.0 | 8.0 | 0.00 | 0.00 | 0.00 | 78 | 1020.1 |
| 20260905221759 | 11 | 90 | 12.9 | 11.3 | 0.00 | 0.00 | 0.00 | 78 | 1020.0 |
| 20260905221257 | 11 | 83 | 11.3 | 11.3 | 0.00 | 0.00 | 0.00 | 77 | 1020.0 |
| 20260905220757 | 11 | 44 | 11.3 | 14.5 | 0.00 | 0.00 | 0.00 | 76 | 1020.0 |
| 20260905220258 | 11 | 51 | 11.3 | 6.4 | 0.00 | 0.00 | 0.00 | 76 | 1020.1 |
| 20260905215759 | 11 | 73 | 9.7 | 12.9 | 0.00 | 0.00 | 0.00 | 75 | 1019.9 |
| 20260905215259 | 11 | 86 | 11.3 | 6.4 | 0.00 | 0.00 | 0.00 | 73 | 1020.0 |
| 20260905214800 | 12 | 97 | 12.9 | 8.0 | 0.00 | 0.00 | 0.00 | 72 | 1019.9 |
| 20260905214258 | 12 | 39 | 11.3 | 9.7 | 0.00 | 0.00 | 0.00 | 71 | 1019.8 |
| 20260905213758 | 12 | 77 | 11.3 | 8.0 | 0.00 | 0.00 | 0.00 | 70 | 1019.9 |
| 20260905213259 | 12 | 49 | 11.3 | 12.9 | 0.00 | 0.00 | 0.00 | 70 | 1019.9 |
| 20260905212759 | 12 | 62 | 4.8 | 8.0 | 0.00 | 0.00 | 0.00 | 69 | 1019.8 |
| 20260905212300 | 12 | 63 | 6.4 | 8.0 | 0.00 | 0.00 | 0.00 | 69 | 1020.0 |
| 20260905211800 | 12 | 68 | 9.7 | 8.0 | 0.00 | 0.00 | 0.00 | 69 | 1019.8 |
| 20260905211258 | 12 | 73 | 4.8 | 6.4 | 0.00 | 0.00 | 0.00 | 69 | 1019.7 |
| 20260905210759 | 12 | 94 | 9.7 | 9.7 | 0.00 | 0.00 | 0.00 | 69 | 1019.6 |
| 20260905210300 | 12 | 96 | 6.4 | 6.4 | 0.00 | 0.00 | 0.00 | 69 | 1019.4 |
| 20260905205800 | 12 | 51 | 9.7 | 4.8 | 0.00 | 0.00 | 0.00 | 69 | 1019.4 |
| 20260905205301 | 12 | 52 | 8.0 | 8.0 | 0.00 | 0.00 | 0.00 | 69 | 1019.4 |
| 20260905204802 | 12 | 60 | 9.7 | 9.7 | 0.00 | 0.00 | 0.00 | 69 | 1019.3 |
| 20260905204300 | 12 | 76 | 6.4 | 9.7 | 0.00 | 0.00 | 0.00 | 69 | 1019.4 |
| 20260905203800 | 12 | 51 | 8.0 | 9.7 | 0.00 | 0.00 | 0.00 | 68 | 1019.3 |
| 20260905203301 | 13 | 69 | 8.0 | 9.7 | 0.00 | 0.00 | 0.00 | 66 | 1019.3 |
| 20260905202802 | 13 | 28 | 6.4 | 8.0 | 0.00 | 0.00 | 0.00 | 66 | 1019.3 |
| 20260905202306 | 13 | 69 | 8.0 | 11.3 | 0.00 | 0.00 | 0.00 | 65 | 1019.3 |
| 20260905201803 | 13 | 39 | 6.4 | 4.8 | 0.00 | 0.00 | 0.00 | 65 | 1019.4 |
| 20260905201301 | 13 | 51 | 8.0 | 11.3 | 0.00 | 0.00 | 0.00 | 64 | 1019.3 |
| 20260905200801 | 13 | 75 | 8.0 | 8.0 | 0.00 | 0.00 | 0.00 | 63 | 1019.3 |
| 20260905200302 | 13 | 79 | 6.4 | 4.8 | 0.00 | 0.00 | 0.00 | 63 | 1019.2 |
| 20260905195803 | 13 | 31 | 3.2 | 8.0 | 0.00 | 0.00 | 0.00 | 62 | 1019.2 |
| 20260905195306 | 13 | 38 | 4.8 | 3.2 | 0.00 | 0.00 | 0.00 | 61 | 1019.2 |
| 20260905194804 | 13 | 30 | 8.0 | 6.4 | 0.00 | 0.00 | 0.00 | 61 | 1019.3 |
| 20260905194302 | 13 | 31 | 8.0 | 8.0 | 0.00 | 0.00 | 0.00 | 61 | 1019.2 |
| 20260905193803 | 13 | 89 | 4.8 | 3.2 | 0.00 | 0.00 | 0.00 | 61 | 1019.2 |
| 20260905193303 | 13 | 53 | 9.7 | 4.8 | 0.00 | 0.00 | 0.00 | 60 | 1019.3 |
| 20260905192804 | 14 | 34 | 6.4 | 11.3 | 0.00 | 0.00 | 0.00 | 60 | 1019.4 |
| 20260905192306 | 13 | 41 | 9.7 | 11.3 | 0.00 | 0.00 | 0.00 | 60 | 1019.4 |
| 20260905191805 | 14 | 31 | 4.8 | 3.2 | 0.00 | 0.00 | 0.00 | 59 | 1019.4 |